Location: Estes Par
(40.3770°N, 105.5210°W)
Time: 23:47:12
(UTC-07:00)

Envisat - Pass Details

Date: 09 October 2017
Orbit: 764 x 766 km, 98.2° (Epoch: 11 December)

Event Time Altitude Azimuth Distance (km) Brightness Sun altitude
Exits shadow 19:44:41 21° 75° (ENE) 1,662 4.2 -14.9°
Maximum altitude 19:45:18 22° 65° (ENE) 1,642 4.2 -15.0°
Drops below altitude 10° 19:49:05 10° 16° (NNE) 2,308 5.4 -15.7°
Sets 19:51:51 0° 2° (N) 3,239 6.3 -16.2°
